Time,TemperatureF,DewpointF,PressureIn,WindDirection,WindDirectionDegrees,WindSpeedMPH,WindSpeedGustMPH,Humidity,HourlyPrecipIn,Conditions,Clouds,dailyrainin,SolarRadiationWatts/m^2,SoftwareType,DateUTC
2013-01-24 00:02:00,-4.7,-14.1,30.70,NNE,28,6.0,6.0,63,0.00,,---,0.00,0.00,VWS V14.00,2013-01-24 06:02:00,
2013-01-24 00:07:00,-4.8,-14.5,30.71,North,350,2.0,10.0,62,0.00,,---,0.00,0.00,VWS V14.00,2013-01-24 06:07:00,
2013-01-24 00:12:00,-4.9,-14.9,30.70,North,10,6.0,10.0,61,0.00,,---,0.00,0.00,VWS V14.00,2013-01-24 06:12:00,
2013-01-24 00:18:00,-5.0,-15.3,30.70,North,9,4.0,11.0,60,0.00,,---,0.00,0.00,VWS V14.00,2013-01-24 06:18:00,
2013-01-24 00:23:00,-5.1,-15.1,30.70,NNE,24,1.0,11.0,61,0.00,,---,0.00,0.00,VWS V14.00,2013-01-24 06:23:00,
2013-01-24 00:28:00,-5.2,-14.9,30.70,NNW,338,2.0,2.0,62,0.00,,---,0.00,0.00,VWS V14.00,2013-01-24 06:28:00,
2013-01-24 00:33:00,-5.3,-15.0,30.71,NNW,348,4.0,6.0,62,0.00,,---,0.00,0.00,VWS V14.00,2013-01-24 06:33:00,
2013-01-24 00:38:00,-5.4,-15.1,30.70,North,5,3.0,10.0,62,0.00,,---,0.00,0.00,VWS V14.00,2013-01-24 06:38:00,
2013-01-24 00:43:00,-5.5,-15.1,30.70,NW,323,2.0,10.0,62,0.00,,---,0.00,0.00,VWS V14.00,2013-01-24 06:43:00,
2013-01-24 00:48:00,-5.5,-15.1,30.70,NNW,338,1.0,11.0,62,0.00,,---,0.00,0.00,VWS V14.00,2013-01-24 06:48:00,
2013-01-24 00:53:00,-5.6,-15.2,30.70,North,360,2.0,11.0,62,0.00,,---,0.00,0.00,VWS V14.00,2013-01-24 06:53:00,
2013-01-24 00:58:00,-5.7,-15.7,30.70,NNW,338,2.0,5.0,61,0.00,,---,0.00,0.00,VWS V14.00,2013-01-24 06:58:00,
2013-01-24 01:03:00,-5.8,-15.8,30.70,NNW,347,7.0,15.0,61,0.00,,---,0.00,0.00,VWS V14.00,2013-01-24 07:03:00,
2013-01-24 01:08:00,-5.8,-15.8,30.70,North,360,3.0,15.0,61,0.00,,---,0.00,0.00,VWS V14.00,2013-01-24 07:08:00,
2013-01-24 01:13:00,-5.9,-15.9,30.70,North,10,4.0,15.0,61,0.00,,---,0.00,0.00,VWS V14.00,2013-01-24 07:13:00,
2013-01-24 01:19:00,-6.0,-15.9,30.71,NE,50,7.0,15.0,61,0.00,,---,0.00,0.00,VWS V14.00,2013-01-24 07:19:00,
2013-01-24 01:24:00,-6.0,-15.9,30.70,NNW,344,3.0,15.0,61,0.00,,---,0.00,0.00,VWS V14.00,2013-01-24 07:24:00,
2013-01-24 01:29:00,-6.0,-15.6,30.70,North,355,8.0,8.0,62,0.00,,---,0.00,0.00,VWS V14.00,2013-01-24 07:29:00,
2013-01-24 01:34:00,-6.0,-15.6,30.70,North,10,3.0,11.0,62,0.00,,---,0.00,0.00,VWS V14.00,2013-01-24 07:34:00,
2013-01-24 01:39:00,-6.1,-15.7,30.71,North,350,1.0,11.0,62,0.00,,---,0.00,0.00,VWS V14.00,2013-01-24 07:39:00,
2013-01-24 01:44:00,-6.1,-15.7,30.71,NNE,32,3.0,11.0,62,0.00,,---,0.00,0.00,VWS V14.00,2013-01-24 07:44:00,
2013-01-24 01:49:00,-6.1,-15.4,30.72,NNW,346,2.0,11.0,63,0.00,,---,0.00,0.00,VWS V14.00,2013-01-24 07:49:00,
2013-01-24 01:54:00,-6.2,-15.8,30.72,NE,37,1.0,11.0,62,0.00,,---,0.00,0.00,VWS V14.00,2013-01-24 07:54:00,
2013-01-24 01:59:00,-6.2,-15.8,30.72,NNE,17,4.0,6.0,62,0.00,,---,0.00,0.00,VWS V14.00,2013-01-24 07:59:00,
2013-01-24 02:04:00,-6.2,-15.8,30.72,NE,40,1.0,6.0,62,0.00,,---,0.00,0.00,VWS V14.00,2013-01-24 08:04:00,
2013-01-24 02:09:00,-6.3,-16.2,30.72,ENE,61,2.0,7.0,61,0.00,,---,0.00,0.00,VWS V14.00,2013-01-24 08:09:00,
2013-01-24 02:14:00,-6.3,-15.9,30.72,NNE,15,1.0,7.0,62,0.00,,---,0.00,0.00,VWS V14.00,2013-01-24 08:14:00,
2013-01-24 02:19:00,-6.3,-16.2,30.72,ENE,57,0.0,7.0,61,0.00,,---,0.00,0.00,VWS V14.00,2013-01-24 08:19:00,
2013-01-24 02:24:00,-6.4,-16.0,30.73,NNE,26,2.0,7.0,62,0.00,,---,0.00,0.00,VWS V14.00,2013-01-24 08:24:00,
2013-01-24 02:29:00,-6.4,-16.0,30.73,North,355,2.0,2.0,62,0.00,,---,0.00,0.00,VWS V14.00,2013-01-24 08:29:00,
2013-01-24 02:34:00,-6.4,-15.7,30.73,North,360,2.0,3.0,63,0.00,,---,0.00,0.00,VWS V14.00,2013-01-24 08:34:00,
2013-01-24 02:39:00,-6.4,-16.0,30.73,NNW,348,5.0,8.0,62,0.00,,---,0.00,0.00,VWS V14.00,2013-01-24 08:39:00,
2013-01-24 02:44:00,-6.5,-15.8,30.73,NNE,13,3.0,8.0,63,0.00,,---,0.00,0.00,VWS V14.00,2013-01-24 08:44:00,
2013-01-24 02:49:00,-6.5,-16.1,30.74,NNW,347,2.0,8.0,62,0.00,,---,0.00,0.00,VWS V14.00,2013-01-24 08:49:00,
2013-01-24 02:55:00,-6.5,-16.1,30.74,North,5,1.0,8.0,62,0.00,,---,0.00,0.00,VWS V14.00,2013-01-24 08:55:00,
2013-01-24 03:00:00,-6.5,-16.1,30.73,NNE,28,1.0,2.0,62,0.00,,---,0.00,0.00,VWS V14.00,2013-01-24 09:00:00,
2013-01-24 03:05:00,-6.5,-16.1,30.74,North,355,2.0,6.0,62,0.00,,---,0.00,0.00,VWS V14.00,2013-01-24 09:05:00,
2013-01-24 03:10:00,-6.5,-16.1,30.74,North,5,2.0,6.0,62,0.00,,---,0.00,0.00,VWS V14.00,2013-01-24 09:10:00,
2013-01-24 03:15:00,-6.5,-15.8,30.74,NNE,29,1.0,6.0,63,0.00,,---,0.00,0.00,VWS V14.00,2013-01-24 09:15:00,
2013-01-24 03:20:00,-6.5,-15.8,30.74,North,10,1.0,6.0,63,0.00,,---,0.00,0.00,VWS V14.00,2013-01-24 09:20:00,
2013-01-24 03:25:00,-6.5,-16.1,30.75,NNW,348,1.0,6.0,62,0.00,,---,0.00,0.00,VWS V14.00,2013-01-24 09:25:00,
2013-01-24 03:30:00,-6.4,-15.7,30.75,NNE,23,0.0,2.0,63,0.00,,---,0.00,0.00,VWS V14.00,2013-01-24 09:30:00,
2013-01-24 03:35:00,-6.4,-15.7,30.75,NNE,21,1.0,5.0,63,0.00,,---,0.00,0.00,VWS V14.00,2013-01-24 09:35:00,
2013-01-24 03:40:00,-6.3,-15.6,30.75,NNE,16,0.0,5.0,63,0.00,,---,0.00,0.00,VWS V14.00,2013-01-24 09:40:00,
2013-01-24 03:45:00,-6.3,-15.6,30.74,NE,42,0.0,5.0,63,0.00,,---,0.00,0.00,VWS V14.00,2013-01-24 09:45:00,
2013-01-24 03:50:00,-6.3,-15.6,30.74,NNE,26,2.0,5.0,63,0.00,,---,0.00,0.00,VWS V14.00,2013-01-24 09:50:00,
2013-01-24 03:55:00,-6.3,-15.6,30.74,NNE,27,0.0,5.0,63,0.00,,---,0.00,0.00,VWS V14.00,2013-01-24 09:55:00,
2013-01-24 04:00:00,-6.3,-15.6,30.75,NNE,30,1.0,1.0,63,0.00,,---,0.00,0.00,VWS V14.00,2013-01-24 10:00:00,
2013-01-24 04:05:00,-6.3,-15.6,30.75,NNE,18,3.0,3.0,63,0.00,,---,0.00,0.00,VWS V14.00,2013-01-24 10:05:00,
2013-01-24 04:10:00,-6.3,-15.9,30.75,NE,50,1.0,5.0,62,0.00,,---,0.00,0.00,VWS V14.00,2013-01-24 10:10:00,
2013-01-24 04:15:00,-6.3,-15.6,30.74,NE,41,1.0,5.0,63,0.00,,---,0.00,0.00,VWS V14.00,2013-01-24 10:15:00,
2013-01-24 04:20:00,-6.3,-15.6,30.74,NE,38,0.0,5.0,63,0.00,,---,0.00,0.00,VWS V14.00,2013-01-24 10:20:00,
2013-01-24 04:25:00,-6.3,-15.6,30.75,NNE,17,1.0,5.0,63,0.00,,---,0.00,0.00,VWS V14.00,2013-01-24 10:25:00,
2013-01-24 04:30:00,-6.2,-15.5,30.75,NNE,18,1.0,2.0,63,0.00,,---,0.00,0.00,VWS V14.00,2013-01-24 10:30:00,
2013-01-24 04:36:00,-6.1,-15.1,30.74,NNE,20,0.0,3.0,64,0.00,,---,0.00,0.00,VWS V14.00,2013-01-24 10:36:00,
2013-01-24 04:41:00,-6.1,-15.1,30.72,NE,34,0.0,7.0,64,0.00,,---,0.00,0.00,VWS V14.00,2013-01-24 10:41:00,
2013-01-24 04:46:00,-6.1,-15.1,30.72,ENE,59,1.0,7.0,64,0.00,,---,0.00,0.00,VWS V14.00,2013-01-24 10:46:00,
2013-01-24 04:51:00,-6.2,-15.2,30.72,North,360,0.0,7.0,64,0.00,,---,0.00,0.00,VWS V14.00,2013-01-24 10:51:00,
2013-01-24 04:56:00,-6.2,-15.2,30.72,NE,43,0.0,7.0,64,0.00,,---,0.00,0.00,VWS V14.00,2013-01-24 10:56:00,
2013-01-24 05:01:00,-6.1,-15.1,30.72,NE,42,0.0,2.0,64,0.00,,---,0.00,0.00,VWS V14.00,2013-01-24 11:01:00,
2013-01-24 05:06:00,-6.1,-14.8,30.72,NNE,32,0.0,2.0,65,0.00,,---,0.00,0.00,VWS V14.00,2013-01-24 11:06:00,
2013-01-24 05:11:00,-6.1,-15.1,30.72,NE,46,0.0,2.0,64,0.00,,---,0.00,0.00,VWS V14.00,2013-01-24 11:11:00,
2013-01-24 05:16:00,-6.1,-14.8,30.72,NE,44,0.0,2.0,65,0.00,,---,0.00,0.00,VWS V14.00,2013-01-24 11:16:00,
2013-01-24 05:21:00,-6.0,-14.7,30.72,NE,42,1.0,3.0,65,0.00,,---,0.00,0.00,VWS V14.00,2013-01-24 11:21:00,
2013-01-24 05:26:00,-6.1,-14.8,30.72,NE,44,1.0,3.0,65,0.00,,---,0.00,0.00,VWS V14.00,2013-01-24 11:26:00,
2013-01-24 05:31:00,-6.0,-14.7,30.72,NNE,13,0.0,4.0,65,0.00,,---,0.00,0.00,VWS V14.00,2013-01-24 11:31:00,
2013-01-24 05:36:00,-6.0,-14.7,30.73,NNE,19,0.0,4.0,65,0.00,,---,0.00,0.00,VWS V14.00,2013-01-24 11:36:00,
2013-01-24 05:41:00,-6.0,-14.4,30.72,NNE,20,0.0,4.0,66,0.00,,---,0.00,0.00,VWS V14.00,2013-01-24 11:41:00,
2013-01-24 05:46:00,-5.9,-14.6,30.72,ENE,61,0.0,4.0,65,0.00,,---,0.00,0.00,VWS V14.00,2013-01-24 11:46:00,
2013-01-24 05:51:00,-5.9,-14.3,30.72,NE,51,0.0,4.0,66,0.00,,---,0.00,0.00,VWS V14.00,2013-01-24 11:51:00,
2013-01-24 05:56:00,-5.8,-14.5,30.72,East,101,0.0,4.0,65,0.00,,---,0.00,0.00,VWS V14.00,2013-01-24 11:56:00,
2013-01-24 06:01:00,-5.8,-14.2,30.73,East,101,0.0,0.0,66,0.00,,---,0.00,0.00,VWS V14.00,2013-01-24 12:01:00,
2013-01-24 06:07:00,-5.7,-14.4,30.73,East,101,0.0,1.0,65,0.00,,---,0.00,0.00,VWS V14.00,2013-01-24 12:07:00,
2013-01-24 06:12:00,-5.7,-14.1,30.74,East,98,1.0,2.0,66,0.00,,---,0.00,0.00,VWS V14.00,2013-01-24 12:12:00,
2013-01-24 06:17:00,-5.6,-14.0,30.74,East,98,0.0,2.0,66,0.00,,---,0.00,0.00,VWS V14.00,2013-01-24 12:17:00,
2013-01-24 06:22:00,-5.6,-14.0,30.74,East,96,0.0,2.0,66,0.00,,---,0.00,0.00,VWS V14.00,2013-01-24 12:22:00,
2013-01-24 06:27:00,-5.5,-13.9,30.75,East,96,0.0,2.0,66,0.00,,---,0.00,0.00,VWS V14.00,2013-01-24 12:27:00,
2013-01-24 06:32:00,-5.4,-13.8,30.76,East,96,1.0,1.0,66,0.00,,---,0.00,0.00,VWS V14.00,2013-01-24 12:32:00,
2013-01-24 06:37:00,-5.4,-14.1,30.76,East,96,0.0,1.0,65,0.00,,---,0.00,0.00,VWS V14.00,2013-01-24 12:37:00,
2013-01-24 06:42:00,-5.3,-13.7,30.77,East,96,0.0,1.0,66,0.00,,---,0.00,0.00,VWS V14.00,2013-01-24 12:42:00,
2013-01-24 06:47:00,-5.3,-13.7,30.76,East,96,0.0,1.0,66,0.00,,---,0.00,0.00,VWS V14.00,2013-01-24 12:47:00,
2013-01-24 06:53:00,-5.2,-13.6,30.76,East,96,0.0,1.0,66,0.00,,---,0.00,0.00,VWS V14.00,2013-01-24 12:53:00,
2013-01-24 06:57:00,-5.2,-13.6,30.75,East,96,0.0,1.0,66,0.00,,---,0.00,0.00,VWS V14.00,2013-01-24 12:57:00,
2013-01-24 07:03:00,-5.1,-13.2,30.76,East,96,0.0,0.0,67,0.00,,---,0.00,0.00,VWS V14.00,2013-01-24 13:03:00,
2013-01-24 07:08:00,-5.0,-13.4,30.76,East,96,0.0,2.0,66,0.00,,---,0.00,0.00,VWS V14.00,2013-01-24 13:08:00,
2013-01-24 07:13:00,-5.0,-13.4,30.76,East,96,0.0,2.0,66,0.00,,---,0.00,0.00,VWS V14.00,2013-01-24 13:13:00,
2013-01-24 07:18:00,-4.9,-13.3,30.75,East,96,0.0,2.0,66,0.00,,---,0.00,0.00,VWS V14.00,2013-01-24 13:18:00,
2013-01-24 07:23:00,-4.9,-13.0,30.75,East,96,0.0,2.0,67,0.00,,---,0.00,0.00,VWS V14.00,2013-01-24 13:23:00,
2013-01-24 07:28:00,-4.8,-12.9,30.75,East,96,0.0,0.0,67,0.00,,---,0.00,0.00,VWS V14.00,2013-01-24 13:28:00,
2013-01-24 07:33:00,-4.7,-12.9,30.75,East,96,0.0,0.0,67,0.00,,---,0.00,0.00,VWS V14.00,2013-01-24 13:33:00,
2013-01-24 07:38:00,-4.6,-13.1,30.75,East,95,0.0,2.0,66,0.00,,---,0.00,0.00,VWS V14.00,2013-01-24 13:38:00,
2013-01-24 07:43:00,-4.6,-13.1,30.75,NE,53,0.0,2.0,66,0.00,,---,0.00,0.00,VWS V14.00,2013-01-24 13:43:00,
2013-01-24 07:48:00,-4.7,-13.1,30.75,NE,52,0.0,2.0,66,0.00,,---,0.00,5.00,VWS V14.00,2013-01-24 13:48:00,
2013-01-24 07:54:00,-4.7,-13.1,30.74,NE,52,0.0,2.0,66,0.00,,---,0.00,7.00,VWS V14.00,2013-01-24 13:54:00,
2013-01-24 07:59:00,-4.6,-13.1,30.75,NE,38,0.0,1.0,66,0.00,,---,0.00,11.00,VWS V14.00,2013-01-24 13:59:00,
2013-01-24 08:04:00,-4.6,-12.8,30.74,NE,39,0.0,1.0,67,0.00,,---,0.00,14.00,VWS V14.00,2013-01-24 14:04:00,
2013-01-24 08:09:00,-4.6,-12.8,30.74,NE,40,0.0,1.0,67,0.00,,---,0.00,19.00,VWS V14.00,2013-01-24 14:09:00,
2013-01-24 08:14:00,-4.5,-12.7,30.74,NE,43,0.0,2.0,67,0.00,,---,0.00,25.00,VWS V14.00,2013-01-24 14:14:00,
2013-01-24 08:19:00,-4.5,-12.7,30.73,NE,44,0.0,2.0,67,0.00,,---,0.00,28.00,VWS V14.00,2013-01-24 14:19:00,
2013-01-24 08:24:00,-4.5,-12.7,30.73,NE,44,0.0,5.0,67,0.00,,---,0.00,33.00,VWS V14.00,2013-01-24 14:24:00,
2013-01-24 08:29:00,-4.5,-13.0,30.73,NE,52,0.0,1.0,66,0.00,,---,0.00,40.00,VWS V14.00,2013-01-24 14:29:00,
2013-01-24 08:34:00,-4.4,-12.6,30.73,NNE,32,0.0,2.0,67,0.00,,---,0.00,46.00,VWS V14.00,2013-01-24 14:34:00,
2013-01-24 08:39:00,-4.3,-12.5,30.72,SE,126,0.0,2.0,67,0.00,,---,0.00,53.00,VWS V14.00,2013-01-24 14:39:00,
2013-01-24 08:44:00,-4.1,-12.3,30.72,NNE,18,0.0,3.0,67,0.00,,---,0.00,60.00,VWS V14.00,2013-01-24 14:44:00,
2013-01-24 08:49:00,-4.0,-12.2,30.71,NE,35,1.0,3.0,67,0.00,,---,0.00,65.00,VWS V14.00,2013-01-24 14:49:00,
2013-01-24 08:54:00,-4.0,-12.2,30.71,East,96,1.0,3.0,67,0.00,,---,0.00,72.00,VWS V14.00,2013-01-24 14:54:00,
2013-01-24 08:59:00,-3.8,-12.0,30.72,SE,128,1.0,1.0,67,0.00,,---,0.00,77.00,VWS V14.00,2013-01-24 14:59:00,
2013-01-24 09:04:00,-3.6,-11.5,30.71,ENE,59,1.0,2.0,68,0.00,,---,0.00,77.00,VWS V14.00,2013-01-24 15:04:00,
2013-01-24 09:10:00,-3.5,-11.7,30.70,ENE,67,0.0,2.0,67,0.00,,---,0.00,79.00,VWS V14.00,2013-01-24 15:10:00,
2013-01-24 09:15:00,-3.3,-11.8,30.70,ESE,103,0.0,2.0,66,0.00,,---,0.00,79.00,VWS V14.00,2013-01-24 15:15:00,
2013-01-24 09:20:00,-3.1,-11.3,30.71,East,81,1.0,2.0,67,0.00,,---,0.00,79.00,VWS V14.00,2013-01-24 15:20:00,
2013-01-24 09:25:00,-2.9,-11.1,30.71,SE,134,1.0,4.0,67,0.00,,---,0.00,84.00,VWS V14.00,2013-01-24 15:25:00,
2013-01-24 09:30:00,-2.8,-11.0,30.70,NNE,22,0.0,4.0,67,0.00,,---,0.00,93.00,VWS V14.00,2013-01-24 15:30:00,
2013-01-24 09:35:00,-2.7,-11.2,30.71,ESE,117,1.0,5.0,66,0.00,,---,0.00,100.00,VWS V14.00,2013-01-24 15:35:00,
2013-01-24 09:40:00,-2.6,-11.1,30.72,SSE,167,0.0,5.0,66,0.00,,---,0.00,105.00,VWS V14.00,2013-01-24 15:40:00,
2013-01-24 09:45:00,-2.3,-10.6,30.72,SSE,167,0.0,5.0,67,0.00,,---,0.00,109.00,VWS V14.00,2013-01-24 15:45:00,
2013-01-24 09:50:00,-2.0,-10.6,30.72,SSE,167,0.0,5.0,66,0.00,,---,0.00,107.00,VWS V14.00,2013-01-24 15:50:00,
2013-01-24 09:55:00,-1.6,-9.9,30.71,SSE,167,0.0,5.0,67,0.00,,---,0.00,109.00,VWS V14.00,2013-01-24 15:55:00,
2013-01-24 10:00:00,-1.3,-9.9,30.71,SSW,195,0.0,3.0,66,0.00,,---,0.00,114.00,VWS V14.00,2013-01-24 16:00:00,
2013-01-24 10:05:00,-1.1,-10.0,30.71,SSW,195,0.0,3.0,65,0.00,,---,0.00,118.00,VWS V14.00,2013-01-24 16:05:00,
2013-01-24 10:11:00,-0.9,-9.8,30.71,SSW,195,0.0,3.0,65,0.00,,---,0.00,120.00,VWS V14.00,2013-01-24 16:11:00,
2013-01-24 10:16:00,-0.7,-9.6,30.71,SSE,155,1.0,3.0,65,0.00,,---,0.00,121.00,VWS V14.00,2013-01-24 16:16:00,
2013-01-24 10:21:00,-0.8,-10.0,30.71,East,80,0.0,3.0,64,0.00,,---,0.00,123.00,VWS V14.00,2013-01-24 16:21:00,
2013-01-24 10:26:00,-0.8,-9.7,30.71,ENE,74,0.0,3.0,65,0.00,,---,0.00,130.00,VWS V14.00,2013-01-24 16:26:00,
2013-01-24 10:31:00,-0.6,-9.5,30.71,SE,137,0.0,1.0,65,0.00,,---,0.00,134.00,VWS V14.00,2013-01-24 16:31:00,
2013-01-24 10:36:00,-0.4,-9.3,30.72,SE,140,0.0,2.0,65,0.00,,---,0.00,139.00,VWS V14.00,2013-01-24 16:36:00,
2013-01-24 10:41:00,-0.1,-9.4,30.72,SE,140,0.0,2.0,64,0.00,,---,0.00,142.00,VWS V14.00,2013-01-24 16:41:00,
2013-01-24 10:46:00,0.1,-8.6,30.70,SE,140,0.0,2.0,66,0.00,,---,0.00,146.00,VWS V14.00,2013-01-24 16:46:00,
2013-01-24 10:51:00,0.3,-9.0,30.70,SE,127,0.0,2.0,64,0.00,,---,0.00,162.00,VWS V14.00,2013-01-24 16:51:00,
2013-01-24 10:56:00,0.5,-9.1,30.70,SSE,162,1.0,2.0,63,0.00,,---,0.00,174.00,VWS V14.00,2013-01-24 16:56:00,
2013-01-24 11:01:00,0.6,-8.7,30.69,SSW,196,3.0,5.0,64,0.00,,---,0.00,181.00,VWS V14.00,2013-01-24 17:01:00,
2013-01-24 11:06:00,0.7,-8.6,30.69,SSE,165,0.0,5.0,64,0.00,,---,0.00,185.00,VWS V14.00,2013-01-24 17:06:00,
2013-01-24 11:12:00,0.7,-8.9,30.69,East,85,0.0,5.0,63,0.00,,---,0.00,192.00,VWS V14.00,2013-01-24 17:12:00,
2013-01-24 11:17:00,0.9,-8.1,30.68,ESE,103,1.0,5.0,65,0.00,,---,0.00,192.00,VWS V14.00,2013-01-24 17:17:00,
2013-01-24 11:22:00,1.0,-8.3,30.68,SE,126,2.0,5.0,64,0.00,,---,0.00,185.00,VWS V14.00,2013-01-24 17:22:00,
2013-01-24 11:27:00,1.2,-8.1,30.68,NNE,15,1.0,5.0,64,0.00,,---,0.00,183.00,VWS V14.00,2013-01-24 17:27:00,
2013-01-24 11:32:00,1.5,-7.8,30.68,NE,42,0.0,2.0,64,0.00,,---,0.00,186.00,VWS V14.00,2013-01-24 17:32:00,
2013-01-24 11:37:00,1.7,-7.7,30.68,NE,36,0.0,3.0,64,0.00,,---,0.00,190.00,VWS V14.00,2013-01-24 17:37:00,
2013-01-24 11:42:00,1.9,-7.8,30.68,ENE,71,0.0,3.0,63,0.00,,---,0.00,185.00,VWS V14.00,2013-01-24 17:42:00,
2013-01-24 11:47:00,2.0,-7.7,30.68,ESE,119,2.0,5.0,63,0.00,,---,0.00,183.00,VWS V14.00,2013-01-24 17:47:00,
2013-01-24 11:52:00,2.2,-7.2,30.68,ENE,58,0.0,5.0,64,0.00,,---,0.00,186.00,VWS V14.00,2013-01-24 17:52:00,
2013-01-24 11:57:00,2.4,-7.0,30.67,SE,137,1.0,5.0,64,0.00,,---,0.00,188.00,VWS V14.00,2013-01-24 17:57:00,
2013-01-24 12:02:00,2.7,-6.7,30.67,SSE,154,1.0,1.0,64,0.00,,---,0.00,202.00,VWS V14.00,2013-01-24 18:02:00,
2013-01-24 12:07:00,2.8,-6.6,30.66,South,173,0.0,2.0,64,0.00,,---,0.00,200.00,VWS V14.00,2013-01-24 18:07:00,
2013-01-24 12:12:00,3.1,-6.6,30.66,SSE,154,1.0,5.0,63,0.00,,---,0.00,204.00,VWS V14.00,2013-01-24 18:12:00,
2013-01-24 12:17:00,3.4,-6.0,30.66,East,88,2.0,5.0,64,0.00,,---,0.00,207.00,VWS V14.00,2013-01-24 18:17:00,
2013-01-24 12:22:00,3.6,-6.2,30.66,ESE,106,1.0,5.0,63,0.00,,---,0.00,207.00,VWS V14.00,2013-01-24 18:22:00,
2013-01-24 12:27:00,3.8,-6.0,30.65,South,173,0.0,5.0,63,0.00,,---,0.00,209.00,VWS V14.00,2013-01-24 18:27:00,
2013-01-24 12:32:00,4.0,-6.1,30.65,South,174,0.0,2.0,62,0.00,,---,0.00,211.00,VWS V14.00,2013-01-24 18:32:00,
2013-01-24 12:37:00,4.2,-6.2,30.64,SE,127,0.0,4.0,61,0.00,,---,0.00,204.00,VWS V14.00,2013-01-24 18:37:00,
2013-01-24 12:42:00,4.5,-5.6,30.64,SSE,153,0.0,4.0,62,0.00,,---,0.00,193.00,VWS V14.00,2013-01-24 18:42:00,
2013-01-24 12:47:00,4.6,-5.2,30.63,SSE,150,1.0,4.0,63,0.00,,---,0.00,172.00,VWS V14.00,2013-01-24 18:47:00,
2013-01-24 12:53:00,4.9,-4.9,30.62,SSW,200,0.0,4.0,63,0.00,,---,0.00,160.00,VWS V14.00,2013-01-24 18:53:00,
2013-01-24 12:58:00,5.0,-5.2,30.61,SW,233,1.0,1.0,62,0.00,,---,0.00,141.00,VWS V14.00,2013-01-24 18:58:00,
2013-01-24 13:03:00,5.0,-2.9,30.61,ESE,103,1.0,2.0,69,0.00,,---,0.00,132.00,VWS V14.00,2013-01-24 19:03:00,
2013-01-24 13:08:00,5.2,-4.6,30.61,SSW,211,1.0,2.0,63,0.00,,---,0.00,130.00,VWS V14.00,2013-01-24 19:08:00,
2013-01-24 13:13:00,5.5,-4.3,30.60,SSW,207,0.0,2.0,63,0.00,,---,0.00,132.00,VWS V14.00,2013-01-24 19:13:00,
2013-01-24 13:18:00,5.6,-4.6,30.60,South,187,0.0,3.0,62,0.00,,---,0.00,127.00,VWS V14.00,2013-01-24 19:18:00,
2013-01-24 13:23:00,5.8,-4.1,30.60,East,101,0.0,3.0,63,0.00,,---,0.00,113.00,VWS V14.00,2013-01-24 19:23:00,
2013-01-24 13:28:00,5.9,-4.3,30.60,ENE,76,1.0,1.0,62,0.00,,---,0.00,104.00,VWS V14.00,2013-01-24 19:28:00,
2013-01-24 13:33:00,6.0,-3.9,30.60,East,94,0.0,2.0,63,0.00,,---,0.00,100.00,VWS V14.00,2013-01-24 19:33:00,
2013-01-24 13:38:00,6.2,-4.0,30.60,SSE,158,0.0,2.0,62,0.00,,---,0.00,118.00,VWS V14.00,2013-01-24 19:38:00,
2013-01-24 13:43:00,6.4,-3.8,30.60,North,5,2.0,2.0,62,0.00,,---,0.00,139.00,VWS V14.00,2013-01-24 19:43:00,
2013-01-24 13:49:00,6.7,-3.9,30.60,SSE,155,0.0,2.0,61,0.00,,---,0.00,146.00,VWS V14.00,2013-01-24 19:49:00,
2013-01-24 13:54:00,7.1,-3.5,30.59,South,169,1.0,2.0,61,0.00,,---,0.00,144.00,VWS V14.00,2013-01-24 19:54:00,
2013-01-24 13:59:00,7.3,-3.0,30.59,ESE,114,0.0,0.0,62,0.00,,---,0.00,120.00,VWS V14.00,2013-01-24 19:59:00,
2013-01-24 14:04:00,7.5,-2.8,30.58,East,87,2.0,3.0,62,0.00,,---,0.00,118.00,VWS V14.00,2013-01-24 20:04:00,
2013-01-24 14:09:00,7.6,-3.0,30.58,NNE,31,0.0,3.0,61,0.00,,---,0.00,114.00,VWS V14.00,2013-01-24 20:09:00,
2013-01-24 14:14:00,7.6,-3.0,30.58,NNE,32,1.0,3.0,61,0.00,,---,0.00,109.00,VWS V14.00,2013-01-24 20:14:00,
2013-01-24 14:19:00,7.7,-2.9,30.57,ESE,107,0.0,3.0,61,0.00,,---,0.00,114.00,VWS V14.00,2013-01-24 20:19:00,
2013-01-24 14:24:00,7.7,-3.3,30.56,ESE,121,0.0,3.0,60,0.00,,---,0.00,102.00,VWS V14.00,2013-01-24 20:24:00,
2013-01-24 14:30:00,7.7,-3.3,30.56,East,97,0.0,3.0,60,0.00,,---,0.00,91.00,VWS V14.00,2013-01-24 20:30:00,
2013-01-24 14:35:00,7.7,-2.9,30.55,ESE,116,0.0,3.0,61,0.00,,---,0.00,88.00,VWS V14.00,2013-01-24 20:35:00,
2013-01-24 14:40:00,7.9,-3.1,30.54,ENE,74,2.0,4.0,60,0.00,,---,0.00,100.00,VWS V14.00,2013-01-24 20:40:00,
2013-01-24 14:45:00,8.0,-2.7,30.54,NE,55,0.0,4.0,61,0.00,,---,0.00,98.00,VWS V14.00,2013-01-24 20:45:00,
2013-01-24 14:50:00,8.1,-2.5,30.53,ENE,75,0.0,4.0,61,0.00,,---,0.00,104.00,VWS V14.00,2013-01-24 20:50:00,
2013-01-24 14:55:00,8.3,-2.4,30.53,SSE,167,0.0,4.0,61,0.00,,---,0.00,102.00,VWS V14.00,2013-01-24 20:55:00,
2013-01-24 15:00:00,8.5,-2.5,30.53,South,169,1.0,3.0,60,0.00,,---,0.00,97.00,VWS V14.00,2013-01-24 21:00:00,
2013-01-24 15:05:00,8.6,-2.1,30.53,South,186,2.0,3.0,61,0.00,,---,0.00,100.00,VWS V14.00,2013-01-24 21:05:00,
2013-01-24 15:10:00,8.7,-2.3,30.52,SW,216,0.0,3.0,60,0.00,,---,0.00,93.00,VWS V14.00,2013-01-24 21:10:00,
2013-01-24 15:15:00,8.9,-1.8,30.52,SE,140,4.0,4.0,61,0.00,,---,0.00,83.00,VWS V14.00,2013-01-24 21:15:00,
2013-01-24 15:20:00,9.1,-2.0,30.51,SSE,159,0.0,6.0,60,0.00,,---,0.00,83.00,VWS V14.00,2013-01-24 21:20:00,
2013-01-24 15:25:00,9.4,-1.7,30.51,SSE,168,1.0,6.0,60,0.00,,---,0.00,77.00,VWS V14.00,2013-01-24 21:25:00,
2013-01-24 15:31:00,9.5,-2.3,30.50,East,90,4.0,4.0,58,0.00,,---,0.00,77.00,VWS V14.00,2013-01-24 21:31:00,
2013-01-24 15:36:00,9.6,-2.2,30.50,SSW,204,1.0,4.0,58,0.00,,---,0.00,70.00,VWS V14.00,2013-01-24 21:36:00,
2013-01-24 15:41:00,9.7,-2.1,30.50,SE,131,1.0,4.0,58,0.00,,---,0.00,62.00,VWS V14.00,2013-01-24 21:41:00,
2013-01-24 15:46:00,9.9,-1.9,30.49,South,184,1.0,4.0,58,0.00,,---,0.00,70.00,VWS V14.00,2013-01-24 21:46:00,
2013-01-24 15:51:00,9.9,-1.5,30.49,South,185,0.0,4.0,59,0.00,,---,0.00,60.00,VWS V14.00,2013-01-24 21:51:00,
2013-01-24 15:56:00,10.0,-1.8,30.49,SSW,208,2.0,4.0,58,0.00,,---,0.00,47.00,VWS V14.00,2013-01-24 21:56:00,
2013-01-24 16:01:00,10.1,-1.7,30.49,SE,143,0.0,2.0,58,0.00,,---,0.00,37.00,VWS V14.00,2013-01-24 22:01:00,
2013-01-24 16:06:00,10.1,-1.7,30.48,SSE,162,0.0,2.0,58,0.00,,---,0.00,32.00,VWS V14.00,2013-01-24 22:06:00,
2013-01-24 16:11:00,10.1,-1.4,30.47,ESE,118,0.0,2.0,59,0.00,,---,0.00,33.00,VWS V14.00,2013-01-24 22:11:00,
2013-01-24 16:16:00,10.2,-1.6,30.48,ESE,115,0.0,2.0,58,0.00,,---,0.00,30.00,VWS V14.00,2013-01-24 22:16:00,
2013-01-24 16:21:00,10.2,-1.6,30.48,South,188,0.0,2.0,58,0.00,,---,0.00,21.00,VWS V14.00,2013-01-24 22:21:00,
2013-01-24 16:26:00,10.3,-1.2,30.48,SE,136,0.0,3.0,59,0.00,,---,0.00,14.00,VWS V14.00,2013-01-24 22:26:00,
2013-01-24 16:32:00,10.3,-1.5,30.47,ESE,117,0.0,1.0,58,0.00,,---,0.00,12.00,VWS V14.00,2013-01-24 22:32:00,
2013-01-24 16:37:00,10.3,-1.5,30.47,South,190,0.0,2.0,58,0.00,,---,0.00,11.00,VWS V14.00,2013-01-24 22:37:00,
2013-01-24 16:42:00,10.3,-1.5,30.46,South,190,0.0,2.0,58,0.00,,---,0.00,9.00,VWS V14.00,2013-01-24 22:42:00,
2013-01-24 16:47:00,10.3,-1.5,30.46,SSW,203,0.0,2.0,58,0.00,,---,0.00,7.00,VWS V14.00,2013-01-24 22:47:00,
2013-01-24 16:52:00,10.2,-1.6,30.45,SSW,200,0.0,2.0,58,0.00,,---,0.00,7.00,VWS V14.00,2013-01-24 22:52:00,
2013-01-24 16:57:00,10.2,-1.3,30.45,SSE,149,0.0,3.0,59,0.00,,---,0.00,0.00,VWS V14.00,2013-01-24 22:57:00,
2013-01-24 17:02:00,10.2,-1.3,30.45,SSE,149,1.0,1.0,59,0.00,,---,0.00,0.00,VWS V14.00,2013-01-24 23:02:00,
2013-01-24 17:07:00,10.2,-1.6,30.45,ESE,119,0.0,2.0,58,0.00,,---,0.00,0.00,VWS V14.00,2013-01-24 23:07:00,
2013-01-24 17:12:00,10.2,-1.6,30.44,SSE,164,0.0,2.0,58,0.00,,---,0.00,0.00,VWS V14.00,2013-01-24 23:12:00,
2013-01-24 17:17:00,10.2,-1.6,30.44,NNE,31,0.0,2.0,58,0.00,,---,0.00,0.00,VWS V14.00,2013-01-24 23:17:00,
2013-01-24 17:23:00,10.2,-1.3,30.44,South,179,0.0,3.0,59,0.00,,---,0.00,0.00,VWS V14.00,2013-01-24 23:23:00,
2013-01-24 17:28:00,10.2,-2.0,30.44,ESE,107,0.0,0.0,57,0.00,,---,0.00,0.00,VWS V14.00,2013-01-24 23:28:00,
2013-01-24 17:33:00,10.2,-2.0,30.44,North,360,1.0,2.0,57,0.00,,---,0.00,0.00,VWS V14.00,2013-01-24 23:33:00,
2013-01-24 17:38:00,10.2,-2.0,30.44,WNW,291,0.0,2.0,57,0.00,,---,0.00,0.00,VWS V14.00,2013-01-24 23:38:00,
2013-01-24 17:43:00,10.2,-2.0,30.44,South,175,0.0,2.0,57,0.00,,---,0.00,0.00,VWS V14.00,2013-01-24 23:43:00,
2013-01-24 17:48:00,10.2,-1.6,30.44,SW,227,0.0,2.0,58,0.00,,---,0.00,0.00,VWS V14.00,2013-01-24 23:48:00,
2013-01-24 17:53:00,10.2,-1.6,30.43,SW,220,0.0,2.0,58,0.00,,---,0.00,0.00,VWS V14.00,2013-01-24 23:53:00,
2013-01-24 17:58:00,10.1,-1.7,30.43,ESE,115,0.0,1.0,58,0.00,,---,0.00,0.00,VWS V14.00,2013-01-24 23:58:00,
2013-01-24 18:03:00,10.1,-1.7,30.43,SW,217,0.0,3.0,58,0.00,,---,0.00,0.00,VWS V14.00,2013-01-25 00:03:00,
2013-01-24 18:08:00,10.1,-1.7,30.42,East,100,0.0,3.0,58,0.00,,---,0.00,0.00,VWS V14.00,2013-01-25 00:08:00,
2013-01-24 18:14:00,10.1,-2.1,30.41,South,169,2.0,3.0,57,0.00,,---,0.00,0.00,VWS V14.00,2013-01-25 00:14:00,
2013-01-24 18:19:00,10.1,-2.1,30.41,SE,130,1.0,8.0,57,0.00,,---,0.00,0.00,VWS V14.00,2013-01-25 00:19:00,
2013-01-24 18:24:00,10.2,-2.4,30.40,SE,145,0.0,8.0,56,0.00,,---,0.00,0.00,VWS V14.00,2013-01-25 00:24:00,
2013-01-24 18:29:00,10.2,-2.0,30.39,East,89,1.0,3.0,57,0.00,,---,0.00,0.00,VWS V14.00,2013-01-25 00:29:00,
2013-01-24 18:34:00,10.3,-2.3,30.39,SSE,150,0.0,3.0,56,0.00,,---,0.00,0.00,VWS V14.00,2013-01-25 00:34:00,
2013-01-24 18:39:00,10.3,-1.9,30.39,North,355,1.0,3.0,57,0.00,,---,0.00,0.00,VWS V14.00,2013-01-25 00:39:00,
2013-01-24 18:44:00,10.4,-1.8,30.41,South,189,0.0,3.0,57,0.00,,---,0.00,0.00,VWS V14.00,2013-01-25 00:44:00,
2013-01-24 18:49:00,10.4,-1.8,30.41,NE,51,0.0,4.0,57,0.00,,---,0.00,0.00,VWS V14.00,2013-01-25 00:49:00,
2013-01-24 18:54:00,10.5,-1.3,30.39,ENE,78,0.0,4.0,58,0.00,,---,0.00,0.00,VWS V14.00,2013-01-25 00:54:00,
2013-01-24 19:00:00,10.5,-1.3,30.39,South,174,1.0,3.0,58,0.00,,---,0.00,0.00,VWS V14.00,2013-01-25 01:00:00,
2013-01-24 19:05:00,10.5,-1.3,30.39,ESE,123,1.0,5.0,58,0.00,,---,0.00,0.00,VWS V14.00,2013-01-25 01:05:00,
2013-01-24 19:10:00,10.5,-1.3,30.38,South,190,1.0,5.0,58,0.00,,---,0.00,0.00,VWS V14.00,2013-01-25 01:10:00,
2013-01-24 19:15:00,10.5,-1.3,30.37,SSE,165,0.0,5.0,58,0.00,,---,0.00,0.00,VWS V14.00,2013-01-25 01:15:00,
2013-01-24 19:20:00,10.5,-1.0,30.36,SSE,149,0.0,5.0,59,0.00,,---,0.00,0.00,VWS V14.00,2013-01-25 01:20:00,
2013-01-24 19:25:00,10.5,-1.3,30.36,SSE,152,1.0,5.0,58,0.00,,---,0.00,0.00,VWS V14.00,2013-01-25 01:25:00,
2013-01-24 19:30:00,10.5,-1.0,30.36,NNW,340,2.0,6.0,59,0.00,,---,0.00,0.00,VWS V14.00,2013-01-25 01:30:00,
2013-01-24 19:35:00,10.5,-0.6,30.35,SSE,168,1.0,6.0,60,0.00,,---,0.00,0.00,VWS V14.00,2013-01-25 01:35:00,
2013-01-24 19:40:00,10.5,-0.6,30.34,East,90,0.0,6.0,60,0.00,,---,0.00,0.00,VWS V14.00,2013-01-25 01:40:00,
2013-01-24 19:46:00,10.5,-0.3,30.34,South,175,1.0,6.0,61,0.00,,---,0.00,0.00,VWS V14.00,2013-01-25 01:46:00,
2013-01-24 19:51:00,10.5,-0.3,30.33,South,180,1.0,6.0,61,0.00,,---,0.00,0.00,VWS V14.00,2013-01-25 01:51:00,
2013-01-24 19:56:00,10.5,-0.3,30.33,South,178,0.0,6.0,61,0.00,,---,0.00,0.00,VWS V14.00,2013-01-25 01:56:00,
2013-01-24 20:01:00,10.5,-0.3,30.32,SSW,204,0.0,1.0,61,0.00,,---,0.00,0.00,VWS V14.00,2013-01-25 02:01:00,
2013-01-24 20:06:00,10.5,-0.3,30.31,SSE,154,0.0,3.0,61,0.00,,---,0.00,0.00,VWS V14.00,2013-01-25 02:06:00,
2013-01-24 20:11:00,10.6,0.5,30.32,East,95,0.0,3.0,63,0.00,,---,0.00,0.00,VWS V14.00,2013-01-25 02:11:00,
2013-01-24 20:16:00,10.6,0.2,30.32,SSE,153,0.0,3.0,62,0.00,,---,0.00,0.00,VWS V14.00,2013-01-25 02:16:00,
2013-01-24 20:21:00,10.6,0.2,30.32,WSW,250,0.0,4.0,62,0.00,,---,0.00,0.00,VWS V14.00,2013-01-25 02:21:00,
2013-01-24 20:26:00,10.6,0.2,30.32,South,177,0.0,5.0,62,0.00,,---,0.00,0.00,VWS V14.00,2013-01-25 02:26:00,
2013-01-24 20:31:00,10.7,0.6,30.32,SSE,157,2.0,5.0,63,0.00,,---,0.00,0.00,VWS V14.00,2013-01-25 02:31:00,
2013-01-24 20:36:00,10.7,0.6,30.32,SSE,154,5.0,5.0,63,0.00,,---,0.00,0.00,VWS V14.00,2013-01-25 02:36:00,
2013-01-24 20:42:00,10.8,0.7,30.32,ENE,67,1.0,5.0,63,0.00,,---,0.00,0.00,VWS V14.00,2013-01-25 02:42:00,
2013-01-24 20:47:00,10.8,1.0,30.31,South,178,0.0,5.0,64,0.00,,---,0.00,0.00,VWS V14.00,2013-01-25 02:47:00,
2013-01-24 20:52:00,10.9,1.1,30.31,SSE,161,0.0,5.0,64,0.00,,---,0.00,0.00,VWS V14.00,2013-01-25 02:52:00,
2013-01-24 20:57:00,10.9,1.1,30.31,ESE,118,0.0,5.0,64,0.00,,---,0.00,0.00,VWS V14.00,2013-01-25 02:57:00,
2013-01-24 21:02:00,11.0,1.2,30.30,SSE,152,3.0,3.0,64,0.00,,---,0.00,0.00,VWS V14.00,2013-01-25 03:02:00,
2013-01-24 21:07:00,11.0,1.2,30.30,NNE,26,0.0,3.0,64,0.00,,---,0.00,0.00,VWS V14.00,2013-01-25 03:07:00,
2013-01-24 21:12:00,11.0,1.2,30.30,South,186,1.0,4.0,64,0.00,,---,0.00,0.00,VWS V14.00,2013-01-25 03:12:00,
2013-01-24 21:17:00,11.2,1.7,30.30,SSE,149,0.0,5.0,65,0.00,,---,0.00,0.00,VWS V14.00,2013-01-25 03:17:00,
2013-01-24 21:22:00,11.2,1.4,30.29,SE,139,0.0,7.0,64,0.00,,---,0.00,0.00,VWS V14.00,2013-01-25 03:22:00,
2013-01-24 21:27:00,11.3,1.8,30.29,East,101,0.0,7.0,65,0.00,,---,0.00,0.00,VWS V14.00,2013-01-25 03:27:00,
2013-01-24 21:32:00,11.3,1.5,30.29,South,180,1.0,3.0,64,0.00,,---,0.00,0.00,VWS V14.00,2013-01-25 03:32:00,
2013-01-24 21:37:00,11.4,1.6,30.28,SSE,159,0.0,5.0,64,0.00,,---,0.00,0.00,VWS V14.00,2013-01-25 03:37:00,
2013-01-24 21:43:00,11.5,1.7,30.29,South,188,0.0,5.0,64,0.00,,---,0.00,0.00,VWS V14.00,2013-01-25 03:43:00,
2013-01-24 21:48:00,11.5,1.7,30.30,South,172,0.0,5.0,64,0.00,,---,0.00,0.00,VWS V14.00,2013-01-25 03:48:00,
2013-01-24 21:53:00,11.6,2.1,30.31,ENE,59,0.0,5.0,65,0.00,,---,0.00,0.00,VWS V14.00,2013-01-25 03:53:00,
2013-01-24 21:58:00,11.7,1.9,30.31,SSE,167,2.0,2.0,64,0.00,,---,0.00,0.00,VWS V14.00,2013-01-25 03:58:00,
2013-01-24 22:03:00,11.8,2.0,30.31,SW,215,0.0,5.0,64,0.00,,---,0.00,0.00,VWS V14.00,2013-01-25 04:03:00,
2013-01-24 22:08:00,11.9,2.4,30.31,ESE,115,0.0,7.0,65,0.00,,---,0.00,0.00,VWS V14.00,2013-01-25 04:08:00,
2013-01-24 22:13:00,11.9,2.4,30.31,SE,142,0.0,7.0,65,0.00,,---,0.00,0.00,VWS V14.00,2013-01-25 04:13:00,
2013-01-24 22:18:00,12.0,2.5,30.32,South,188,0.0,7.0,65,0.00,,---,0.00,0.00,VWS V14.00,2013-01-25 04:18:00,
2013-01-24 22:24:00,12.1,2.6,30.32,South,188,0.0,7.0,65,0.00,,---,0.00,0.00,VWS V14.00,2013-01-25 04:24:00,
2013-01-24 22:29:00,12.1,2.6,30.32,SW,221,2.0,2.0,65,0.00,,---,0.00,0.00,VWS V14.00,2013-01-25 04:29:00,
2013-01-24 22:34:00,12.2,2.7,30.32,SSW,203,0.0,4.0,65,0.00,,---,0.00,0.00,VWS V14.00,2013-01-25 04:34:00,
2013-01-24 22:39:00,12.2,2.7,30.31,South,177,0.0,4.0,65,0.00,,---,0.00,0.00,VWS V14.00,2013-01-25 04:39:00,
2013-01-24 22:44:00,12.3,3.1,30.30,South,177,0.0,4.0,66,0.00,,---,0.00,0.00,VWS V14.00,2013-01-25 04:44:00,
2013-01-24 22:49:00,12.3,3.1,30.29,SSW,209,2.0,4.0,66,0.00,,---,0.00,0.00,VWS V14.00,2013-01-25 04:49:00,
2013-01-24 22:54:00,12.4,3.2,30.28,SE,144,0.0,4.0,66,0.00,,---,0.00,0.00,VWS V14.00,2013-01-25 04:54:00,
2013-01-24 22:59:00,12.5,3.3,30.28,SSW,206,1.0,3.0,66,0.00,,---,0.00,0.00,VWS V14.00,2013-01-25 04:59:00,
2013-01-24 23:00:00,12.5,3.0,30.28,SSW,203,0.0,3.0,65,0.00,,---,0.00,0.00,VWS V14.00,2013-01-25 05:00:00,
2013-01-24 23:01:00,12.5,3.0,30.28,South,173,0.0,3.0,65,0.00,,---,0.00,0.00,VWS V14.00,2013-01-25 05:01:00,
2013-01-24 23:03:00,12.5,3.3,30.28,South,173,0.0,3.0,66,0.00,,---,0.00,0.00,VWS V14.00,2013-01-25 05:03:00,
2013-01-24 23:08:00,12.6,3.4,30.28,South,169,0.0,3.0,66,0.00,,---,0.00,0.00,VWS V14.00,2013-01-25 05:08:00,
2013-01-24 23:13:00,12.6,3.4,30.28,South,174,1.0,3.0,66,0.00,,---,0.00,0.00,VWS V14.00,2013-01-25 05:13:00,
2013-01-24 23:19:00,12.6,3.4,30.28,South,170,0.0,3.0,66,0.00,,---,0.00,0.00,VWS V14.00,2013-01-25 05:19:00,
2013-01-24 23:24:00,12.7,3.2,30.27,SSE,161,0.0,3.0,65,0.00,,---,0.00,0.00,VWS V14.00,2013-01-25 05:24:00,
2013-01-24 23:29:00,12.7,3.2,30.27,South,171,0.0,4.0,65,0.00,,---,0.00,0.00,VWS V14.00,2013-01-25 05:29:00,
2013-01-24 23:34:00,12.8,3.6,30.27,South,190,0.0,4.0,66,0.00,,---,0.00,0.00,VWS V14.00,2013-01-25 05:34:00,
2013-01-24 23:39:00,12.9,3.0,30.27,South,180,0.0,4.0,64,0.00,,---,0.00,0.00,VWS V14.00,2013-01-25 05:39:00,
2013-01-24 23:44:00,12.9,3.7,30.26,South,180,0.0,4.0,66,0.00,,---,0.00,0.00,VWS V14.00,2013-01-25 05:44:00,
2013-01-24 23:49:00,12.9,4.0,30.26,WSW,239,1.0,4.0,67,0.00,,---,0.00,0.00,VWS V14.00,2013-01-25 05:49:00,
2013-01-24 23:54:00,13.1,3.6,30.25,South,191,0.0,10.0,65,0.00,,---,0.00,0.00,VWS V14.00,2013-01-25 05:54:00,
2013-01-24 23:59:00,13.4,4.2,30.25,South,180,5.0,11.0,66,0.00,,---,0.00,0.00,VWS V14.00,2013-01-25 05:59:00,